Location: ??????????
(52.1667°N, 54.6167°E)
Time: 08:39:21
(UTC+00:00)

Daily predictions for brighter satellites

Satellite Brightness Start Highest point End
(mag) Time Altitude Azimuth Time Altitude Azimuth Time Altitude Azimuth
Cosmos 2123 Rocket 4.3 13:00:41 10° SSE 13:06:34 47° E 13:12:27 10° NNE
USA 215 3.4 13:01:35 10° E 13:08:02 62° N 13:14:29 10° WNW
Cosmos 1238 Rocket 3.8 13:04:44 10° N 13:09:22 34° ENE 13:13:13 10° SE
Cosmos 1725 Rocket 4.1 13:04:24 10° N 13:10:44 66° ENE 13:17:01 10° SSE
CZ-4B R/B 3.8 13:05:51 10° S 13:11:06 63° WSW 13:16:23 10° NNW
H-2A R/B 4.5 13:07:59 10° NNW 13:11:07 20° WNW 13:14:11 10° WSW
Cosmos-2242 3.1 13:07:46 10° SSW 13:12:02 84° W 13:16:20 10° N
H-2A R/B 3.1 13:09:36 10° SE 13:13:15 41° ENE 13:16:54 10° N
IRS-1C Rocket 4.1 13:08:02 10° SSE 13:13:17 70° ENE 13:18:34 10° NNW
SMAP 3.2 13:09:34 10° SSE 13:14:06 56° ENE 13:18:41 10° N
Meteor 2-10 Rocket 3.7 13:10:17 10° SSE 13:15:02 45° E 13:19:50 10° NNE
Cosmos 1459 Rocket 4.4 13:09:15 10° NNW 13:15:36 72° W 13:21:56 10° S
Cosmos 1743 Rocket 3.8 13:12:01 10° N 13:16:14 46° ENE 13:20:26 10° SSE
Cosmos 2016 Rocket 4.1 13:10:19 10° N 13:16:44 86° ENE 13:23:08 10° S
Cosmos 2344 3.9 13:11:09 10° SSW 13:18:22 54° ESE 13:26:23 10° NE
Okean O Rocket 2.8 13:16:06 10° S 13:20:23 49° W 13:24:40 10° NNW
YAOGAN 6 3.9 13:20:08 10° ESE 13:22:36 18° ENE 13:25:05 10° NNE
BREEZE-M DEB (TANK) 4.0 13:12:27 10° WSW 13:24:35 52° SSE 13:28:13 10° E
Envisat 3.5 13:19:54 10° SE 13:24:35 39° ENE 13:29:18 10° N
ATLAS 5 CENTAUR R/B 2.4 13:22:54 10° NW 13:28:14 54° NE 13:34:23 10° ESE
Cosmos 2278 Rocket 4.4 13:30:00 10° NW 13:33:01 14° NNW 13:36:02 10° NNE
Cosmos 1689 Rocket 3.9 13:32:54 10° N 13:35:41 33° WNW 13:38:27 10° SW
CZ-4B R/B 3.7 13:33:58 10° N 13:36:39 24° WNW 13:39:24 10° WSW
Cosmos 1408 Rocket 4.2 13:33:18 10° NNW 13:37:39 62° W 13:42:02 10° S
Cosmos 1500 Rocket 3.5 13:37:41 10° N 13:42:07 74° ENE 13:46:28 10° SSE
Cosmos 1607 3.9 13:36:38 10° NW 13:42:48 65° NE 13:49:02 10° SE
Aureole 2 Rocket 3.1 13:42:53 10° SW 13:46:12 54° WNW 13:49:41 10° NNE
Cosmos 1633 Rocket 4.2 13:45:07 10° NNE 13:48:36 22° ENE 13:52:04 10° ESE
CZ-4 R/B 2.0 13:44:52 10° SE 13:48:41 35° ENE 13:52:27 10° N
Geosat 4.2 13:45:31 10° NE 13:50:27 52° ESE 13:55:21 10° SSW
Cosmos 1340 Rocket 3.2 13:46:48 10° SSW 13:50:48 69° WNW 13:54:52 10° N
Cosmos 1656 Rocket 4.0 13:46:07 10° SW 13:51:36 66° NW 13:57:04 10° NNE
COSMO-SKYMED 1 3.5 13:48:30 10° NE 13:52:17 28° E 13:56:02 10° SSE
SeaSat 1 2.7 13:47:30 10° SSE 13:52:26 74° WSW 13:57:24 10° NW
Cosmos 1408 4.4 13:52:42 10° NNW 13:56:02 34° W 13:59:18 10° SSW
Cosmos 1867 3.9 13:52:00 10° SSW 13:57:12 47° ESE 14:01:20 16° NE
Cosmos 2219 3.1 13:51:36 10° NNW 13:57:17 84° ENE 14:02:54 10° SSE
Cosmos 1666 Rocket 4.3 13:53:24 10° N 13:57:19 30° ENE 14:01:10 10° SE
CZ-3B R/B 2.4 13:57:11 10° WSW 13:59:27 70° SSE 14:01:14 25° ENE
GEOS 3 Rocket 3.6 13:55:19 12° NE 14:00:07 75° SE 14:05:23 10° SW
CSL-04 Debris 4.4 13:55:06 10° SE 14:00:19 46° ENE 14:05:33 10° N
H-2A R/B 3.8 14:00:27 14° NE 14:00:27 14° NE 14:02:55 10° NNE
Cosmos 1869 3.9 13:57:30 10° SSE 14:01:05 34° E 14:04:36 10° NNE
CENTAUR R/B 3.8 13:55:47 10° WNW 14:02:02 37° N 14:08:07 14° NE
NOAA 12 4.1 13:57:32 10° SSE 14:02:53 90° ENE 14:08:16 10° NNW
NOSS 5 (C) 4.4 14:01:09 10° SW 14:04:51 75° NW 14:06:43 22° NE
Cosmos 1825 3.8 14:02:49 10° NNW 14:06:20 37° W 14:09:50 10° SSW
Sich 1 3.2 14:02:39 10° N 14:06:49 45° ENE 14:11:00 10° SSE
Cosmos 2369 Rocket 3.7 14:02:30 10° WSW 14:07:29 31° NW 14:12:29 10° NNE
Ariane Rocket 3.9 14:04:43 17° ESE 14:07:38 28° ENE 14:11:55 10° N
Cosmos 1939 Rocket 3.8 14:07:18 22° E 14:08:42 27° ENE 14:12:14 10° N
CZ-2D R/B 4.2 14:08:54 25° E 14:09:48 28° ENE 14:13:09 10° N
FengYun 1-2 T 4.1 14:07:05 10° SSE 14:12:35 72° ENE 14:18:05 10° NNW
Meteor 2-2 Rocket 4.3 14:08:46 10° S 14:14:33 62° E 14:20:16 10° NNE
ATLAS 3B R/B 3.8 14:10:51 10° WNW 14:16:46 32° NNW 14:21:23 15° NE
Cosmos 2084 3.9 14:13:15 10° NW 14:17:33 61° SW 14:21:43 10° SSE
Cosmos 773 Rocket 4.0 14:15:46 10° S 14:20:48 56° ESE 14:24:57 15° NE
Cosmos 2056 Rocket 4.4 14:16:53 10° N 14:21:13 26° NE 14:21:56 26° ENE
Cosmos 2227 Rocket 2.1 14:15:42 10° NNW 14:21:25 81° ENE 14:27:05 10° SSE
Cosmos 2297 Rocket 2.1 14:16:24 10° NNW 14:22:06 87° ENE 14:27:47 10° SSE
CSL-04 Rocket 3.6 14:16:57 10° SSE 14:22:15 64° ENE 14:27:32 10° N
Okean-O 3.3 14:18:28 10° S 14:22:50 56° W 14:27:14 10° NNW
YAOGAN 1 2.5 14:21:46 10° SSE 14:26:02 64° ENE 14:30:21 10° N
Cosmos 1538 Rocket 4.1 14:25:42 10° S 14:30:47 53° ESE 14:34:07 22° NE
NOSS 7 (D) 4.0 14:28:47 10° SW 14:31:28 60° SSE 14:31:28 60° SSE
Meteor 1-27 4.4 14:30:27 10° SSW 14:36:05 74° WNW 14:41:52 10° N
Cosmos 397 4.5 14:32:55 10° NW 14:37:13 58° NE 14:38:08 45° E
Cosmos 2221 3.3 14:33:41 10° SSW 14:37:54 52° WNW 14:42:11 10° N
SKYMED 2 3.4 14:36:16 10° NNE 14:40:39 77° ESE 14:44:59 10° S
Cosmos 1633 2.4 14:37:31 10° N 14:41:11 77° E 14:43:53 17° SSE
Cosmos 1862 3.1 14:40:15 10° N 14:44:13 68° ENE 14:46:05 30° SSE
USA 116 4.0 14:42:42 32° NE 14:44:32 57° ESE 14:49:15 10° S
Cosmos 1464 Rocket 3.9 14:39:27 10° N 14:45:42 85° E 14:51:51 10° S
Cosmos 1891 Rocket 4.5 14:40:09 10° N 14:46:37 86° ENE 14:52:55 10° S
Cosmos 2082 3.6 14:41:10 10° NNW 14:46:50 81° ENE 14:50:55 19° SE
Cosmos 2263 Rocket 3.2 14:45:22 10° NNW 14:50:05 28° NE 14:50:05 28° NE
USA 215 3.3 14:46:52 25° ESE 14:50:58 83° SSW 14:57:34 10° WNW
Cosmos 1943 Rocket 4.3 14:47:09 10° WNW 14:51:10 19° NNW 14:55:13 10° NNE
Cosmos 1072 Rocket 4.5 14:47:12 10° NNW 14:53:21 81° W 14:59:29 10° S
YAOGAN 6 3.7 14:52:30 10° S 14:55:52 43° W 14:59:14 10° NNW
Cosmos 1356 Rocket 3.4 14:53:59 10° SSW 14:58:07 85° WNW 15:00:13 29° N
USA 229 DEB 3.6 14:53:33 10° SSW 15:00:02 62° SE 15:02:31 39° ENE
USA 229 3.6 14:53:42 10° SSW 15:00:09 61° SE 15:02:34 40° ENE
Lacrosse 4 Rocket 3.9 14:57:15 10° S 14:57:19 10° S 14:57:19 10° S
Envisat 4.5 14:58:57 10° SSW 15:03:39 37° W 15:08:22 10° NNW
Genesis I 3.2 15:00:30 10° SW 15:04:28 85° W 15:04:28 85° W
Meteor 2-20 Rocket 4.5 14:58:33 10° SSW 15:04:40 82° W 15:10:52 10° N
Cosmos 1697 Rocket 3.5 14:59:36 10° S 15:03:19 33° SE 15:03:19 33° SE
NOSS 3-1 (A) 3.8 15:00:07 10° S 15:04:53 40° SE 15:04:53 40° SE
NOSS 3-1 (C) 3.3 15:01:46 10° SSW 15:07:17 60° SE 15:08:29 51° E
Cosmos 724 4.1 15:02:50 10° NW 15:08:45 76° NE 15:10:08 53° ESE
Cosmos 1371 Rocket 3.9 15:06:12 10° NNW 15:11:24 63° ENE 15:11:24 63° ENE
ATLAS 5 CENTAUR R/B 3.2 15:07:33 10° NW 15:13:00 48° SW 15:18:51 12° SSE
BREEZE-M DEB (TANK) 4.4 15:12:38 10° W 15:13:59 22° WSW 15:13:59 22° WSW
Cosmos 2278 Rocket 4.4 15:17:48 10° NNW 15:19:48 12° N 15:20:31 11° NNE
MOS 1 4.1 15:19:26 65° E 15:19:55 68° ENE 15:25:32 10° NNW
CZ-4 R/B 3.4 15:20:05 10° SSW 15:23:45 29° W 15:27:23 10° NNW
Cosmos 1633 Rocket 3.9 15:22:25 10° NNW 15:26:41 50° W 15:30:39 12° SSW
COSMO-SKYMED 1 3.9 15:24:29 10° N 15:28:34 39° WNW 15:32:36 10° SW
Cosmos 1932 4.4 15:22:54 10° NW 15:29:28 88° NE 15:30:45 61° SE
Cosmos 2344 4.2 15:25:26 10° WSW 15:32:53 55° NNW 15:37:45 27° NE
ARGOS 4.4 15:36:48 30° N 15:36:48 30° N 15:39:39 10° N
H-2A R/B 3.3 15:41:05 33° N 15:41:05 33° N 15:44:03 10° N
Cosmos 1867 4.4 15:35:37 10° WSW 15:40:54 47° NW 15:42:01 41° N
Cosmos 1939 Rocket 4.2 15:43:12 38° WSW 15:43:30 39° W 15:47:25 10° NNW
Ariane Rocket 3.6 15:44:56 42° SSW 15:46:20 56° WSW 15:51:22 10° NNW
Cosmos 1656 3.8 15:43:16 10° SW 15:48:48 69° WNW 15:48:52 69° NW
USA 238 DEB 4.2 15:42:54 10° NW 15:49:41 47° NNE 15:49:41 47° NNE
USA 238 4.2 15:43:00 10° NW 15:49:47 47° NNE 15:49:47 47° NNE
CENTAUR R/B 3.7 15:47:48 10° NW 15:54:37 40° NNE 15:55:17 39° NNE
NOSS 3-2 (A) 4.3 15:51:38 10° NW 15:58:13 48° NNE 15:58:13 48° NNE
Tsikada Rocket 4.1 15:56:16 10° SSW 16:02:37 74° WNW 16:09:04 10° N
Cosmos 2056 Rocket 4.4 15:58:42 10° NNW 16:02:17 43° NW 16:02:17 43° NW
Cosmos 1634 Rocket 4.1 15:58:30 10° NNW 16:03:54 67° NNW 16:03:54 67° NNW
Cosmos 2227 Rocket 4.5 16:00:43 10° NW 16:04:50 21° W 16:08:55 10° SSW
ATLAS 3B R/B 3.7 16:03:12 10° NW 16:08:38 34° N 16:08:38 34° N
USA 215 4.4 16:34:13 33° SW 16:34:35 33° SW 16:40:26 10° WNW
Cosmos 2263 Rocket 3.7 16:29:04 10° NNW 16:31:47 30° NW 16:31:47 30° NW
CENTAUR R/B 4.3 17:38:49 10° NW 17:42:28 32° NW 17:42:28 32° NW
Cosmos 1980 Rocket 4.2 23:11:29 24° NE 23:11:29 24° NE 23:15:15 10° E
ATLAS 2AS CENTAUR R/B 4.0 23:14:34 37° N 23:14:34 37° N 23:21:31 10° ENE
CZ-4C R/B 3.5 23:37:00 38° ENE 23:37:00 38° ENE 23:40:53 10° NE
Cosmos 1697 Rocket 3.8 23:54:17 40° ESE 23:54:17 40° ESE 23:58:01 10° SE
